Location: Atherton
(17.2661°S, 145.4859°E)
Time: 18:17:16
(UTC+10:00)

ACS3 Solar Sail - Pass Details

Date: 29 May 2025
Orbit: 920 x 1019 km, 97.5° (Epoch: 20 June)

Event Time Altitude Azimuth Distance (km) Brightness Sun altitude
Rises 05:59:09 0° 354° (N) 3,551 4.9 -9.9°
Reaches altitude 10° 06:01:42 10° 346° (NNW) 2,622 4.1 -9.4°
Maximum altitude 06:07:07 39° 279° (W) 1,386 2.2 -8.1°
Drops below altitude 10° 06:12:41 10° 211° (SSW) 2,697 3.7 -6.9°
Sets 06:15:22 0° 203° (SSW) 3,664 4.4 -6.3°
